EST,Max TemperatureF,Mean TemperatureF,Min TemperatureF,Max Dew PointF,MeanDew PointF,Min DewpointF,Max Humidity, Mean Humidity, Min Humidity, Max Sea Level PressureIn, Mean Sea Level PressureIn, Min Sea Level PressureIn, Max VisibilityMiles, Mean VisibilityMiles, Min VisibilityMiles, Max Wind SpeedMPH, Mean Wind SpeedMPH, Max Gust SpeedMPH,PrecipitationIn, CloudCover, Events, WindDirDegrees
2012-2-1,53,45,37,46,38,28,93,76,59,30.11,29.91,29.79,10,9,4,25,13,36,0.12,8,Rain,263
2012-2-2,37,34,30,29,26,21,92,81,69,30.41,30.23,30.10,10,8,2,13,7,16,0.02,8,Snow,336
2012-2-3,38,34,29,30,27,20,85,74,63,30.50,30.42,30.36,10,10,9,15,7,25,0.00,8,,257
2012-2-4,38,33,28,30,26,22,85,69,52,30.36,30.29,30.20,10,10,9,14,5,16,0.00,6,,332
2012-2-5,35,31,27,27,24,21,85,77,69,30.24,30.19,30.15,10,10,6,10,4,38,T,6,Snow,194
2012-2-6,47,37,27,31,27,20,85,61,37,30.13,30.02,29.93,10,10,10,31,15,40,0.00,2,,248
2012-2-7,37,30,22,32,27,18,92,81,69,30.34,30.19,30.02,10,6,0,14,7,16,0.06,7,Fog-Rain-Snow,326
2012-2-8,30,25,19,20,18,15,91,75,58,30.34,30.25,30.14,10,10,10,13,6,17,0.00,6,,253
2012-2-9,40,31,22,24,21,15,81,65,48,30.16,30.12,30.09,10,10,10,22,11,29,0.00,1,,241
2012-2-10,35,32,28,25,21,18,85,66,47,30.09,30.01,29.90,10,10,3,21,10,24,T,7,Snow,230
2012-2-11,29,20,10,27,17,3,92,77,61,30.01,29.88,29.79,10,3,0,23,10,28,0.25,8,Fog-Snow,309
2012-2-12,26,21,15,19,14,9,91,77,62,29.98,29.91,29.83,10,3,0,28,15,40,0.44,8,Fog-Snow,279
2012-2-13,36,30,24,21,18,14,69,61,52,29.99,29.97,29.94,10,10,10,29,16,37,0.00,3,,252
2012-2-14,36,31,26,32,27,14,96,73,49,30.01,29.98,29.92,10,7,2,15,7,20,0.03,8,Rain-Snow,192
2012-2-15,39,33,26,32,29,23,96,80,64,30.27,30.17,30.00,10,7,2,21,6,26,T,7,Snow,250
2012-2-16,43,34,25,39,33,23,92,84,75,30.24,30.02,29.89,10,9,5,21,7,26,0.09,8,Rain-Snow,201
2012-2-17,42,35,27,34,29,21,89,75,60,30.08,30.01,29.95,10,6,0,23,12,36,0.08,6,Fog-Rain-Snow,267
2012-2-18,40,32,24,31,28,20,92,78,64,30.16,29.97,29.83,10,7,0,24,9,30,0.12,7,Fog-Snow,235
2012-2-19,31,28,25,25,21,17,88,78,68,30.17,30.14,30.12,10,10,8,13,6,16,T,7,Snow,294
2012-2-20,37,29,20,21,18,15,84,66,47,30.38,30.31,30.17,10,10,10,18,4,29,0.00,2,,337
2012-2-21,41,32,22,33,23,17,81,61,40,30.31,29.93,29.66,10,10,9,24,10,31,T,7,Rain-Snow,177
2012-2-22,46,39,32,36,33,29,100,81,62,29.68,29.54,29.43,10,8,0,29,11,37,0.35,7,Fog-Rain-Snow,240
2012-2-23,40,33,26,32,30,27,100,80,59,29.74,29.56,29.42,10,7,0,16,5,28,0.02,7,Fog-Rain-Snow,238
2012-2-24,45,39,32,41,32,26,96,83,70,29.70,29.40,29.24,10,7,1,40,15,53,0.27,8,Rain-Snow,183
2012-2-25,35,30,25,28,23,10,92,69,46,30.20,29.65,29.38,10,4,0,39,18,51,0.11,7,Fog-Snow,283
2012-2-26,32,27,21,20,16,13,81,67,53,30.46,30.38,30.23,10,10,9,15,6,18,T,6,Snow,332
2012-2-27,50,38,26,26,22,19,75,56,36,30.28,30.15,29.99,10,10,9,37,15,49,T,6,Snow,230
2012-2-28,35,32,28,23,21,18,75,66,56,30.51,30.43,30.32,10,10,9,15,9,26,T,8,Snow,327
2012-2-29,38,34,29,36,29,21,96,80,63,30.34,29.90,29.58,10,5,0,17,10,24,0.17,8,Fog-Rain-Snow,111